ATLAS CENTAUR R/B

Satellite information

Favourite Embed

Satellite Type and Status

ROCKET BODYIN ORBIT

Key statistics

Satellite ATLAS CENTAUR R/B at a glance.

Uptime

20666

Days in orbit

Revolutions

≈ 14.6

Per day

Orbit

LEO

Low Earth Orbit

Inclination

35.0

Latest

Satellite identification and parameters

Extended collection of information and parameters for ATLAS CENTAUR R/B.

Object identification

Identified? True

Debris? False

Object name: ATLAS CENTAUR R/B

International designator: 1968-110B

Object number (NORAD): 3598

Object ID (CCSDS): 3598

Country: UNITED STATES OF AMERICA (US)

Current information (Y/N): Y

RCS size: LARGE

Orbital parameters

Period: 98.822 minutes

Inclination: 34.9921 deg

SMA: 7080.457 km

Apoapsis: 735.74 km

Periapsis: 668.904 km

RAAN: 270.7988 deg

Eccentricy: 0.0047198

Argument of periapsis: 350.7058 deg

Mean anomaly: 9.276 deg

Mean motion: 14.57172002 rev/day

Mean motion (dot): 0.00000309 rev/day2

B* drag term: 0.000071101 1/REarth

Two-line elements (TLE)

Creation date: July 6, 2025, 10:26 p.m.

Reference frame: TEME

Reference center: EARTH

Epoch: July 6, 2025, 3:12 p.m. UTC

TLE line 0: 0 ATLAS CENTAUR R/B

TLE line 1: 1 3598U 68110B 25187.63369961 .00000309 00000-0 71101-4 0 9993

TLE line 2: 2 3598 34.9921 270.7988 0047198 350.7058 9.2760 14.57172002995098

Live tracking on map

Real-time ground track for satellite ATLAS CENTAUR R/B.

In-orbit conjunctions

A list of the most updated potential collisions computed for object ATLAS CENTAUR R/B.

Target Orbit TCA Probability of collision Miss distance Type
CZ-2C DEB SSO 2025-01-04 02:32:01 0.0002700064 291.0 (m) DEBRIS
NOAA 16 DEB SSO 2024-12-14 13:09:55 0.0003924212 158.0 (m) DEBRIS
NOAA 17 DEB SSO 2024-11-05 12:10:31 0.0001098631 761.0 (m) DEBRIS
COSMOS 2251 DEB LEO 2024-06-14 00:58:17 0.0002204707 26.0 (m) DEBRIS

Associated space launch

OAO 2 (Orbiting Astronomical Observatory), also known as Stargazer, was one of a series of automated astronomical observatories that was ground controllable in orientation and was placed in a low-earth orbit.

ATLAS CENTAUR R/B was lifted into orbit during the mission ‘Atlas SLV-3C Centaur | OAO 2’, on board a Atlas SLV-3C Centaur space rocket.

The launch took place on Dec. 7, 1968, 8:40 a.m. from Launch Complex 36B.

For more information about the launch, click the button.

Launch to space Atlas SLV-3C Centaur | OAO 2
Atlas SLV-3C Centaur | OAO 2

Agency: N/A

Status: Launch Successful

Launch date: Dec. 7, 1968, 8:40 a.m. UTC

Rocket: Atlas SLV-3C Centaur

Launch pad: Launch Complex 36B

Location: Cape Canaveral SFS, FL, USA

...

Latest news about this satellite

There are no fresh news available about this satellite. Check back as we update our databases every day.


Newsletter sign-up

Weekly statistics, charts and insights to help you stay on top of the space industry.